Location: Kershaw
(34.5481°N, 80.5823°W)
Time: 23:01:11
(UTC+00:00)

Transit 4A - Pass Details

Date: 14 October 2022
Orbit: 871 x 972 km, 66.8° (Epoch: 09 December)

Event Time Altitude Azimuth Distance (km) Brightness Sun altitude
Rises 01:33:08 0° 236° (SW) 3,600 11.5 -34.1°
Reaches altitude 10° 01:36:04 10° 248° (WSW) 2,642 10.8 -34.7°
Maximum altitude 01:41:15 28° 306° (NW) 1,652 9.6 -35.7°
Enters shadow 01:45:13 15° 356° (N) 2,262 10.1 -36.5°
